Year,Month,Day,Hour,Minute,Value (Times are PST for temperature in C)
2010,10,19,00,00,6.60
2010,10,19,00,01,6.60
2010,10,19,00,02,6.60
2010,10,19,00,03,6.70
2010,10,19,00,04,6.70
2010,10,19,00,05,6.70
2010,10,19,00,06,6.70
2010,10,19,00,07,6.70
2010,10,19,00,08,6.60
2010,10,19,00,09,6.70
2010,10,19,00,10,6.80
2010,10,19,00,11,6.90
2010,10,19,00,12,7.00
2010,10,19,00,13,7.10
2010,10,19,00,14,7.20
2010,10,19,00,15,7.20
2010,10,19,00,16,7.20
2010,10,19,00,17,7.20
2010,10,19,00,18,7.20
2010,10,19,00,19,7.20
2010,10,19,00,20,7.20
2010,10,19,00,21,7.20
2010,10,19,00,22,7.10
2010,10,19,00,23,7.10
2010,10,19,00,24,7.00
2010,10,19,00,25,6.90
2010,10,19,00,26,6.90
2010,10,19,00,27,6.80
2010,10,19,00,28,6.80
2010,10,19,00,29,6.70
2010,10,19,00,30,6.70
2010,10,19,00,31,6.60
2010,10,19,00,32,6.60
2010,10,19,00,33,6.60
2010,10,19,00,34,6.50
2010,10,19,00,35,6.50
2010,10,19,00,36,6.50
2010,10,19,00,37,6.50
2010,10,19,00,38,6.50
2010,10,19,00,39,6.50
2010,10,19,00,40,6.40
2010,10,19,00,41,6.40
2010,10,19,00,42,6.30
2010,10,19,00,43,6.30
2010,10,19,00,44,6.30
2010,10,19,00,45,6.30
2010,10,19,00,46,6.30
2010,10,19,00,47,6.30
2010,10,19,00,48,6.20
2010,10,19,00,49,6.20
2010,10,19,00,50,6.20
2010,10,19,00,51,6.20
2010,10,19,00,52,6.20
2010,10,19,00,53,6.10
2010,10,19,00,54,6.10
2010,10,19,00,55,6.10
2010,10,19,00,56,6.00
2010,10,19,00,57,6.00
2010,10,19,00,58,6.00
2010,10,19,00,59,6.00
2010,10,19,01,00,6.00
2010,10,19,01,01,6.00
2010,10,19,01,02,6.00
2010,10,19,01,03,6.10
2010,10,19,01,04,6.10
2010,10,19,01,05,6.10
2010,10,19,01,06,6.00
2010,10,19,01,07,5.90
2010,10,19,01,08,6.00
2010,10,19,01,09,6.00
2010,10,19,01,10,5.90
2010,10,19,01,11,5.90
2010,10,19,01,12,5.90
2010,10,19,01,13,5.90
2010,10,19,01,14,5.90
2010,10,19,01,15,5.90
2010,10,19,01,16,5.90
2010,10,19,01,17,5.90
2010,10,19,01,18,5.80
2010,10,19,01,19,5.80
2010,10,19,01,20,5.80
2010,10,19,01,21,5.80
2010,10,19,01,22,5.80
2010,10,19,01,23,5.80
2010,10,19,01,24,5.80
2010,10,19,01,25,5.80
2010,10,19,01,26,5.80
2010,10,19,01,27,5.80
2010,10,19,01,28,5.80
2010,10,19,01,29,5.80
2010,10,19,01,30,5.80
2010,10,19,01,31,5.90
2010,10,19,01,32,5.90
2010,10,19,01,33,5.90
2010,10,19,01,34,5.90
2010,10,19,01,35,5.90
2010,10,19,01,36,5.90
2010,10,19,01,37,5.90
2010,10,19,01,38,5.90
2010,10,19,01,39,5.90
2010,10,19,01,40,5.90
2010,10,19,01,41,5.90
2010,10,19,01,42,5.90
2010,10,19,01,43,5.90
2010,10,19,01,44,5.90
2010,10,19,01,45,5.90
2010,10,19,01,46,5.90
2010,10,19,01,47,5.90
2010,10,19,01,48,5.90
2010,10,19,01,49,5.90
2010,10,19,01,50,6.00
2010,10,19,01,51,5.90
2010,10,19,01,52,5.90
2010,10,19,01,53,5.90
2010,10,19,01,54,5.90
2010,10,19,01,55,5.90
2010,10,19,01,56,5.90
2010,10,19,01,57,5.90
2010,10,19,01,58,6.00
2010,10,19,01,59,6.00
2010,10,19,02,00,6.00
2010,10,19,02,01,6.00
2010,10,19,02,02,6.00
2010,10,19,02,03,6.00
2010,10,19,02,04,6.00
2010,10,19,02,05,5.90
2010,10,19,02,06,5.90
2010,10,19,02,07,5.80
2010,10,19,02,08,5.80
2010,10,19,02,09,5.80
2010,10,19,02,10,5.80
2010,10,19,02,11,5.80
2010,10,19,02,12,5.80
2010,10,19,02,13,5.80
2010,10,19,02,14,5.80
2010,10,19,02,15,5.80
2010,10,19,02,16,5.80
2010,10,19,02,17,5.90
2010,10,19,02,18,5.90
2010,10,19,02,19,5.80
2010,10,19,02,20,5.80
2010,10,19,02,21,5.90
2010,10,19,02,22,5.90
2010,10,19,02,23,5.90
2010,10,19,02,24,5.90
2010,10,19,02,25,5.90
2010,10,19,02,26,5.90
2010,10,19,02,27,5.80
2010,10,19,02,28,5.80
2010,10,19,02,29,5.80
2010,10,19,02,30,5.80
2010,10,19,02,31,5.80
2010,10,19,02,32,5.80
2010,10,19,02,33,5.80
2010,10,19,02,34,5.80
2010,10,19,02,35,5.80
2010,10,19,02,36,5.80
2010,10,19,02,37,5.80
2010,10,19,02,38,5.80
2010,10,19,02,39,5.80
2010,10,19,02,40,5.80
2010,10,19,02,41,5.80
2010,10,19,02,42,5.80
2010,10,19,02,43,5.80
2010,10,19,02,44,5.80
2010,10,19,02,45,5.80
2010,10,19,02,46,5.80
2010,10,19,02,47,5.70
2010,10,19,02,48,5.70
2010,10,19,02,49,5.70
2010,10,19,02,50,5.70
2010,10,19,02,51,5.70
2010,10,19,02,52,5.70
2010,10,19,02,53,5.70
2010,10,19,02,54,5.70
2010,10,19,02,55,5.70
2010,10,19,02,56,5.70
2010,10,19,02,57,5.60
2010,10,19,02,58,5.60
2010,10,19,02,59,5.60
2010,10,19,03,00,5.60
2010,10,19,03,01,5.50
2010,10,19,03,02,5.50
2010,10,19,03,03,5.50
2010,10,19,03,04,5.50
2010,10,19,03,05,5.50
2010,10,19,03,06,5.60
2010,10,19,03,07,5.60
2010,10,19,03,08,5.60
2010,10,19,03,09,5.60
2010,10,19,03,10,5.70
2010,10,19,03,11,5.70
2010,10,19,03,12,5.70
2010,10,19,03,13,5.70
2010,10,19,03,14,5.70
2010,10,19,03,15,5.70
2010,10,19,03,16,5.80
2010,10,19,03,17,5.90
2010,10,19,03,18,5.90
2010,10,19,03,19,5.90
2010,10,19,03,20,5.80
2010,10,19,03,21,5.80
2010,10,19,03,22,5.70
2010,10,19,03,23,5.70
2010,10,19,03,24,5.60
2010,10,19,03,25,5.60
2010,10,19,03,26,5.60
2010,10,19,03,27,5.50
2010,10,19,03,28,5.50
2010,10,19,03,29,5.50
2010,10,19,03,30,5.60
2010,10,19,03,31,5.60
2010,10,19,03,32,5.60
2010,10,19,03,33,5.60
2010,10,19,03,34,5.60
2010,10,19,03,35,5.60
2010,10,19,03,36,5.60
2010,10,19,03,37,5.70
2010,10,19,03,38,5.70
2010,10,19,03,39,5.70
2010,10,19,03,40,5.70
2010,10,19,03,41,5.80
2010,10,19,03,42,5.80
2010,10,19,03,43,5.80
2010,10,19,03,44,5.80
2010,10,19,03,45,5.80
2010,10,19,03,46,5.80
2010,10,19,03,47,5.70
2010,10,19,03,48,5.70
2010,10,19,03,49,5.70
2010,10,19,03,50,5.60
2010,10,19,03,51,5.60
2010,10,19,03,52,5.60
2010,10,19,03,53,5.60
2010,10,19,03,54,5.70
2010,10,19,03,55,5.70
2010,10,19,03,56,5.70
2010,10,19,03,57,5.70
2010,10,19,03,58,5.70
2010,10,19,03,59,5.70
2010,10,19,04,00,5.70
2010,10,19,04,01,5.70
2010,10,19,04,02,5.80
2010,10,19,04,03,5.80
2010,10,19,04,04,5.80
2010,10,19,04,05,5.80
2010,10,19,04,06,5.80
2010,10,19,04,07,5.80
2010,10,19,04,08,5.80
2010,10,19,04,09,5.80
2010,10,19,04,10,5.80
2010,10,19,04,11,5.80
2010,10,19,04,12,5.80
2010,10,19,04,13,5.80
2010,10,19,04,14,5.80
2010,10,19,04,15,5.80
2010,10,19,04,16,5.80
2010,10,19,04,17,5.90
2010,10,19,04,18,5.90
2010,10,19,04,19,5.90
2010,10,19,04,20,5.90
2010,10,19,04,21,5.90
2010,10,19,04,22,5.90
2010,10,19,04,23,5.90
2010,10,19,04,24,5.90
2010,10,19,04,25,5.90
2010,10,19,04,26,5.90
2010,10,19,04,27,5.90
2010,10,19,04,28,5.90
2010,10,19,04,29,5.90
2010,10,19,04,30,5.90
2010,10,19,04,31,6.00
2010,10,19,04,32,6.00
2010,10,19,04,33,6.00
2010,10,19,04,34,6.00
2010,10,19,04,35,6.00
2010,10,19,04,36,6.00
2010,10,19,04,37,6.00
2010,10,19,04,38,6.10
2010,10,19,04,39,6.10
2010,10,19,04,40,6.10
2010,10,19,04,41,6.20
2010,10,19,04,42,6.20
2010,10,19,04,43,6.30
2010,10,19,04,44,6.30
2010,10,19,04,45,6.40
2010,10,19,04,46,6.40
2010,10,19,04,47,6.50
2010,10,19,04,48,6.60
2010,10,19,04,49,6.60
2010,10,19,04,50,6.70
2010,10,19,04,51,6.70
2010,10,19,04,52,6.70
2010,10,19,04,53,6.70
2010,10,19,04,54,6.80
2010,10,19,04,55,6.80
2010,10,19,04,56,6.90
2010,10,19,04,57,6.90
2010,10,19,04,58,7.00
2010,10,19,04,59,7.10
2010,10,19,05,00,7.10
2010,10,19,05,01,7.10
2010,10,19,05,02,7.10
2010,10,19,05,03,7.10
2010,10,19,05,04,7.10
2010,10,19,05,05,7.10
2010,10,19,05,06,7.10
2010,10,19,05,07,7.10
2010,10,19,05,08,7.00
2010,10,19,05,09,7.00
2010,10,19,05,10,7.00
2010,10,19,05,11,7.00
2010,10,19,05,12,7.00
2010,10,19,05,13,7.00
2010,10,19,05,14,6.90
2010,10,19,05,15,6.90
2010,10,19,05,16,6.90
2010,10,19,05,17,6.90
2010,10,19,05,18,6.90
2010,10,19,05,19,6.90
2010,10,19,05,20,6.90
2010,10,19,05,21,6.90
2010,10,19,05,22,6.90
2010,10,19,05,23,6.90
2010,10,19,05,24,7.00
2010,10,19,05,25,7.00
2010,10,19,05,26,7.00
2010,10,19,05,27,7.10
2010,10,19,05,28,7.10
2010,10,19,05,29,7.10
2010,10,19,05,30,7.10
2010,10,19,05,31,7.10
2010,10,19,05,32,7.10
2010,10,19,05,33,7.10
2010,10,19,05,34,7.00
2010,10,19,05,35,7.00
2010,10,19,05,36,7.00
2010,10,19,05,37,7.00
2010,10,19,05,38,7.00
2010,10,19,05,39,7.00
2010,10,19,05,40,7.00
2010,10,19,05,41,7.00
2010,10,19,05,42,7.00
2010,10,19,05,43,7.00
2010,10,19,05,44,7.00
2010,10,19,05,45,7.10
2010,10,19,05,46,7.10
2010,10,19,05,47,7.10
2010,10,19,05,48,7.10
2010,10,19,05,49,7.10
2010,10,19,05,50,7.10
2010,10,19,05,51,7.10
2010,10,19,05,52,7.10
2010,10,19,05,53,7.10
2010,10,19,05,54,7.10
2010,10,19,05,55,7.20
2010,10,19,05,56,7.20
2010,10,19,05,57,7.20
2010,10,19,05,58,7.20
2010,10,19,05,59,7.20
2010,10,19,06,00,7.20
2010,10,19,06,01,7.20
2010,10,19,06,02,7.20
2010,10,19,06,03,7.20
2010,10,19,06,04,7.20
2010,10,19,06,05,7.20
2010,10,19,06,06,7.20
2010,10,19,06,07,7.20
2010,10,19,06,08,7.30
2010,10,19,06,09,7.30
2010,10,19,06,10,7.30
2010,10,19,06,11,7.30
2010,10,19,06,12,7.30
2010,10,19,06,13,7.30
2010,10,19,06,14,7.30
2010,10,19,06,15,7.30
2010,10,19,06,16,7.40
2010,10,19,06,17,7.40
2010,10,19,06,18,7.40
2010,10,19,06,19,7.50
2010,10,19,06,20,7.50
2010,10,19,06,21,7.50
2010,10,19,06,22,7.50
2010,10,19,06,23,7.50
2010,10,19,06,24,7.50
2010,10,19,06,25,7.50
2010,10,19,06,26,7.50
2010,10,19,06,27,7.50
2010,10,19,06,28,7.50
2010,10,19,06,29,7.60
2010,10,19,06,30,7.60
2010,10,19,06,31,7.60
2010,10,19,06,32,7.60
2010,10,19,06,33,7.60
2010,10,19,06,34,7.60
2010,10,19,06,35,7.60
2010,10,19,06,36,7.60
2010,10,19,06,37,7.60
2010,10,19,06,38,7.60
2010,10,19,06,39,7.60
2010,10,19,06,40,7.60
2010,10,19,06,41,7.50
2010,10,19,06,42,7.50
2010,10,19,06,43,7.50
2010,10,19,06,44,7.60
2010,10,19,06,45,7.60
2010,10,19,06,46,7.60
2010,10,19,06,47,7.60
2010,10,19,06,48,7.60
2010,10,19,06,49,7.60
2010,10,19,06,50,7.50
2010,10,19,06,51,7.50
2010,10,19,06,52,7.50
2010,10,19,06,53,7.50
2010,10,19,06,54,7.50
2010,10,19,06,55,7.40
2010,10,19,06,56,7.50
2010,10,19,06,57,7.40
2010,10,19,06,58,7.40
2010,10,19,06,59,7.40
2010,10,19,07,00,7.40
2010,10,19,07,01,7.40
2010,10,19,07,02,7.40
2010,10,19,07,03,7.40
2010,10,19,07,04,7.40
2010,10,19,07,05,7.40
2010,10,19,07,06,7.40
2010,10,19,07,07,7.40
2010,10,19,07,08,7.40
2010,10,19,07,09,7.40
2010,10,19,07,10,7.30
2010,10,19,07,11,7.30
2010,10,19,07,12,7.30
2010,10,19,07,13,7.30
2010,10,19,07,14,7.30
2010,10,19,07,15,7.30
2010,10,19,07,16,7.30
2010,10,19,07,17,7.30
2010,10,19,07,18,7.20
2010,10,19,07,19,7.20
2010,10,19,07,20,7.20
2010,10,19,07,21,7.20
2010,10,19,07,22,7.20
2010,10,19,07,23,7.20
2010,10,19,07,24,7.20
2010,10,19,07,25,7.20
2010,10,19,07,26,7.20
2010,10,19,07,27,7.20
2010,10,19,07,28,7.20
2010,10,19,07,29,7.20
2010,10,19,07,30,7.10
2010,10,19,07,31,7.10
2010,10,19,07,32,7.00
2010,10,19,07,33,7.00
2010,10,19,07,34,6.90
2010,10,19,07,35,6.90
2010,10,19,07,36,6.90
2010,10,19,07,37,7.00
2010,10,19,07,38,7.00
2010,10,19,07,39,7.00
2010,10,19,07,40,7.00
2010,10,19,07,41,7.10
2010,10,19,07,42,7.10
2010,10,19,07,43,7.10
2010,10,19,07,44,7.10
2010,10,19,07,45,7.00
2010,10,19,07,46,6.90
2010,10,19,07,47,6.90
2010,10,19,07,48,6.80
2010,10,19,07,49,6.80
2010,10,19,07,50,6.80
2010,10,19,07,51,6.90
2010,10,19,07,52,6.90
2010,10,19,07,53,6.90
2010,10,19,07,54,7.00
2010,10,19,07,55,7.00
2010,10,19,07,56,7.10
2010,10,19,07,57,7.10
2010,10,19,07,58,7.10
2010,10,19,07,59,7.10
2010,10,19,08,00,7.10
2010,10,19,08,01,7.10
2010,10,19,08,02,7.10
2010,10,19,08,03,7.00
2010,10,19,08,04,7.00
2010,10,19,08,05,7.00
2010,10,19,08,06,7.00
2010,10,19,08,07,7.00
2010,10,19,08,08,6.90
2010,10,19,08,09,6.90
2010,10,19,08,10,6.90
2010,10,19,08,11,6.90
2010,10,19,08,12,6.90
2010,10,19,08,13,6.90
2010,10,19,08,14,6.90
2010,10,19,08,15,6.90
2010,10,19,08,16,6.90
2010,10,19,08,17,6.90
2010,10,19,08,18,6.90
2010,10,19,08,19,7.00
2010,10,19,08,20,7.10
2010,10,19,08,21,7.10
2010,10,19,08,22,7.10
2010,10,19,08,23,7.10
2010,10,19,08,24,7.10
2010,10,19,08,25,7.10
2010,10,19,08,26,7.10
2010,10,19,08,27,7.10
2010,10,19,08,28,7.10
2010,10,19,08,29,7.10
2010,10,19,08,30,7.20
2010,10,19,08,31,7.20
2010,10,19,08,32,7.20
2010,10,19,08,33,7.20
2010,10,19,08,34,7.30
2010,10,19,08,35,7.30
2010,10,19,08,36,7.30
2010,10,19,08,37,7.30
2010,10,19,08,38,7.30
2010,10,19,08,39,7.40
2010,10,19,08,40,7.40
2010,10,19,08,41,7.50
2010,10,19,08,42,7.50
2010,10,19,08,43,7.60
2010,10,19,08,44,7.60
2010,10,19,08,45,7.60
2010,10,19,08,46,7.70
2010,10,19,08,47,7.70
2010,10,19,08,48,7.80
2010,10,19,08,49,7.80
2010,10,19,08,50,7.90
2010,10,19,08,51,8.00
2010,10,19,08,52,8.00
2010,10,19,08,53,8.10
2010,10,19,08,54,8.10
2010,10,19,08,55,8.10
2010,10,19,08,56,8.10
2010,10,19,08,57,8.20
2010,10,19,08,58,8.20
2010,10,19,08,59,8.20
2010,10,19,09,00,8.20
2010,10,19,09,01,8.20
2010,10,19,09,02,8.30
2010,10,19,09,03,8.30
2010,10,19,09,04,8.30
2010,10,19,09,05,8.30
2010,10,19,09,06,8.40
2010,10,19,09,07,8.40
2010,10,19,09,08,8.40
2010,10,19,09,09,8.40
2010,10,19,09,10,8.50
2010,10,19,09,11,8.50
2010,10,19,09,12,8.60
2010,10,19,09,13,8.60
2010,10,19,09,14,8.70
2010,10,19,09,15,8.70
2010,10,19,09,16,8.80
2010,10,19,09,17,8.90
2010,10,19,09,18,9.10
2010,10,19,09,19,9.20
2010,10,19,09,20,9.30
2010,10,19,09,21,9.40
2010,10,19,09,22,9.50
2010,10,19,09,23,9.50
2010,10,19,09,24,9.60
2010,10,19,09,25,9.60
2010,10,19,09,26,9.60
2010,10,19,09,27,9.70
2010,10,19,09,28,9.80
2010,10,19,09,29,9.90
2010,10,19,09,30,9.90
2010,10,19,09,31,9.90
2010,10,19,09,32,9.90
2010,10,19,09,33,9.90
2010,10,19,09,34,9.90
2010,10,19,09,35,9.90
2010,10,19,09,36,9.90
2010,10,19,09,37,9.90
2010,10,19,09,38,9.90
2010,10,19,09,39,9.90
2010,10,19,09,40,9.90
2010,10,19,09,41,10.00
2010,10,19,09,42,10.00
2010,10,19,09,43,10.10
2010,10,19,09,44,10.20
2010,10,19,09,45,10.20
2010,10,19,09,46,10.30
2010,10,19,09,47,10.30
2010,10,19,09,48,10.30
2010,10,19,09,49,10.40
2010,10,19,09,50,10.40
2010,10,19,09,51,10.40
2010,10,19,09,52,10.50
2010,10,19,09,53,10.50
2010,10,19,09,54,10.60
2010,10,19,09,55,10.70
2010,10,19,09,56,10.70
2010,10,19,09,57,10.80
2010,10,19,09,58,10.90
2010,10,19,09,59,11.00
2010,10,19,10,00,11.10
2010,10,19,10,01,11.10
2010,10,19,10,02,11.20
2010,10,19,10,03,11.20
2010,10,19,10,04,11.20
2010,10,19,10,05,11.20
2010,10,19,10,06,11.10
2010,10,19,10,07,11.10
2010,10,19,10,08,11.00
2010,10,19,10,09,10.90
2010,10,19,10,10,10.80
2010,10,19,10,11,10.80
2010,10,19,10,12,10.70
2010,10,19,10,13,10.60
2010,10,19,10,14,10.60
2010,10,19,10,15,10.50
2010,10,19,10,16,10.50
2010,10,19,10,17,10.40
2010,10,19,10,18,10.40
2010,10,19,10,19,10.40
2010,10,19,10,20,10.30
2010,10,19,10,21,10.30
2010,10,19,10,22,10.30
2010,10,19,10,23,10.30
2010,10,19,10,24,10.40
2010,10,19,10,25,10.40
2010,10,19,10,26,10.50
2010,10,19,10,27,10.50
2010,10,19,10,28,10.60
2010,10,19,10,29,10.60
2010,10,19,10,30,10.70
2010,10,19,10,31,10.70
2010,10,19,10,32,10.70
2010,10,19,10,33,10.70
2010,10,19,10,34,10.80
2010,10,19,10,35,10.80
2010,10,19,10,36,10.80
2010,10,19,10,37,10.80
2010,10,19,10,38,10.80
2010,10,19,10,39,10.80
2010,10,19,10,40,10.90
2010,10,19,10,41,10.90
2010,10,19,10,42,10.90
2010,10,19,10,43,10.90
2010,10,19,10,44,10.90
2010,10,19,10,45,10.90
2010,10,19,10,46,10.80
2010,10,19,10,47,10.80
2010,10,19,10,48,10.80
2010,10,19,10,49,10.80
2010,10,19,10,50,10.80
2010,10,19,10,51,10.70
2010,10,19,10,52,10.70
2010,10,19,10,53,10.70
2010,10,19,10,54,10.70
2010,10,19,10,55,10.70
2010,10,19,10,56,10.70
2010,10,19,10,57,10.70
2010,10,19,10,58,10.70
2010,10,19,10,59,10.70
2010,10,19,11,00,10.70
2010,10,19,11,01,10.70
2010,10,19,11,02,10.70
2010,10,19,11,03,10.70
2010,10,19,11,04,10.70
2010,10,19,11,05,10.70
2010,10,19,11,06,10.70
2010,10,19,11,07,10.70
2010,10,19,11,08,10.70
2010,10,19,11,09,10.70
2010,10,19,11,10,10.60
2010,10,19,11,11,10.60
2010,10,19,11,12,10.60
2010,10,19,11,13,10.60
2010,10,19,11,14,10.60
2010,10,19,11,15,10.60
2010,10,19,11,16,10.70
2010,10,19,11,17,10.70
2010,10,19,11,18,10.70
2010,10,19,11,19,10.70
2010,10,19,11,20,10.70
2010,10,19,11,21,10.70
2010,10,19,11,22,10.70
2010,10,19,11,23,10.70
2010,10,19,11,24,10.70
2010,10,19,11,25,10.70
2010,10,19,11,26,10.70
2010,10,19,11,27,10.70
2010,10,19,11,28,10.70
2010,10,19,11,29,10.70
2010,10,19,11,30,10.70
2010,10,19,11,31,10.70
2010,10,19,11,32,10.70
2010,10,19,11,33,10.70
2010,10,19,11,34,10.80
2010,10,19,11,35,10.90
2010,10,19,11,36,10.90
2010,10,19,11,37,10.90
2010,10,19,11,38,10.90
2010,10,19,11,39,10.90
2010,10,19,11,40,11.00
2010,10,19,11,41,11.00
2010,10,19,11,42,11.00
2010,10,19,11,43,10.90
2010,10,19,11,44,10.90
2010,10,19,11,45,10.90
2010,10,19,11,46,10.90
2010,10,19,11,47,10.80
2010,10,19,11,48,10.80
2010,10,19,11,49,10.80
2010,10,19,11,50,10.80
2010,10,19,11,51,10.80
2010,10,19,11,52,10.80
2010,10,19,11,53,10.80
2010,10,19,11,54,10.80
2010,10,19,11,55,10.80
2010,10,19,11,56,10.80
2010,10,19,11,57,10.80
2010,10,19,11,58,10.80
2010,10,19,11,59,10.80
2010,10,19,12,00,10.90
2010,10,19,12,01,11.00
2010,10,19,12,02,11.00
2010,10,19,12,03,11.10
2010,10,19,12,04,11.10
2010,10,19,12,05,11.10
2010,10,19,12,06,11.10
2010,10,19,12,07,11.10
2010,10,19,12,08,11.20
2010,10,19,12,09,11.20
2010,10,19,12,10,11.30
2010,10,19,12,11,11.30
2010,10,19,12,12,11.20
2010,10,19,12,13,11.20
2010,10,19,12,14,11.20
2010,10,19,12,15,11.20
2010,10,19,12,16,11.30
2010,10,19,12,17,11.30
2010,10,19,12,18,11.30
2010,10,19,12,19,11.30
2010,10,19,12,20,11.30
2010,10,19,12,21,11.20
2010,10,19,12,22,11.20
2010,10,19,12,23,11.20
2010,10,19,12,24,11.20
2010,10,19,12,25,11.20
2010,10,19,12,26,11.20
2010,10,19,12,27,11.20
2010,10,19,12,28,11.20
2010,10,19,12,29,11.10
2010,10,19,12,30,11.10
2010,10,19,12,31,11.10
2010,10,19,12,32,11.20
2010,10,19,12,33,11.20
2010,10,19,12,34,11.10
2010,10,19,12,35,11.10
2010,10,19,12,36,11.10
2010,10,19,12,37,11.30
2010,10,19,12,38,11.30
2010,10,19,12,39,11.40
2010,10,19,12,40,11.40
2010,10,19,12,41,11.40
2010,10,19,12,42,11.40
2010,10,19,12,43,11.40
2010,10,19,12,44,11.40
2010,10,19,12,45,11.30
2010,10,19,12,46,11.40
2010,10,19,12,47,11.50
2010,10,19,12,48,11.50
2010,10,19,12,49,11.60
2010,10,19,12,50,11.60
2010,10,19,12,51,11.60
2010,10,19,12,52,11.60
2010,10,19,12,53,11.60
2010,10,19,12,54,11.70
2010,10,19,12,55,11.60
2010,10,19,12,56,11.60
2010,10,19,12,57,11.70
2010,10,19,12,58,11.70
2010,10,19,12,59,11.80
2010,10,19,13,00,11.80
2010,10,19,13,01,11.80
2010,10,19,13,02,11.80
2010,10,19,13,03,11.80
2010,10,19,13,04,11.90
2010,10,19,13,05,11.90
2010,10,19,13,06,11.90
2010,10,19,13,07,11.80
2010,10,19,13,08,11.80
2010,10,19,13,09,11.80
2010,10,19,13,10,11.80
2010,10,19,13,11,11.80
2010,10,19,13,12,11.80
2010,10,19,13,13,11.80
2010,10,19,13,14,11.70
2010,10,19,13,15,11.70
2010,10,19,13,16,11.70
2010,10,19,13,17,11.70
2010,10,19,13,18,11.70
2010,10,19,13,19,11.80
2010,10,19,13,20,11.80
2010,10,19,13,21,11.80
2010,10,19,13,22,11.80
2010,10,19,13,23,11.80
2010,10,19,13,24,11.80
2010,10,19,13,25,11.90
2010,10,19,13,26,12.00
2010,10,19,13,27,12.00
2010,10,19,13,28,12.10
2010,10,19,13,29,12.10
2010,10,19,13,30,12.10
2010,10,19,13,31,12.20
2010,10,19,13,32,12.20
2010,10,19,13,33,12.20
2010,10,19,13,34,12.20
2010,10,19,13,35,12.20
2010,10,19,13,36,12.30
2010,10,19,13,37,12.30
2010,10,19,13,38,12.40
2010,10,19,13,39,12.50
2010,10,19,13,40,12.50
2010,10,19,13,41,12.60
2010,10,19,13,42,12.70
2010,10,19,13,43,12.70
2010,10,19,13,44,12.70
2010,10,19,13,45,12.70
2010,10,19,13,46,12.70
2010,10,19,13,47,12.80
2010,10,19,13,48,12.90
2010,10,19,13,49,12.90
2010,10,19,13,50,12.90
2010,10,19,13,51,12.80
2010,10,19,13,52,12.80
2010,10,19,13,53,12.70
2010,10,19,13,54,12.70
2010,10,19,13,55,12.80
2010,10,19,13,56,12.80
2010,10,19,13,57,12.80
2010,10,19,13,58,12.80
2010,10,19,13,59,12.80
2010,10,19,14,00,12.80
2010,10,19,14,01,12.80
2010,10,19,14,02,12.80
2010,10,19,14,03,12.80
2010,10,19,14,04,12.80
2010,10,19,14,05,12.80
2010,10,19,14,06,12.90
2010,10,19,14,07,13.00
2010,10,19,14,08,13.00
2010,10,19,14,09,13.10
2010,10,19,14,10,13.10
2010,10,19,14,11,13.10
2010,10,19,14,12,13.10
2010,10,19,14,13,13.10
2010,10,19,14,14,13.10
2010,10,19,14,15,13.10
2010,10,19,14,16,13.10
2010,10,19,14,17,13.10
2010,10,19,14,18,13.10
2010,10,19,14,19,13.10
2010,10,19,14,20,13.00
2010,10,19,14,21,13.00
2010,10,19,14,22,13.00
2010,10,19,14,23,12.90
2010,10,19,14,24,12.90
2010,10,19,14,25,12.90
2010,10,19,14,26,12.90
2010,10,19,14,27,12.90
2010,10,19,14,28,12.90
2010,10,19,14,29,12.90
2010,10,19,14,30,12.90
2010,10,19,14,31,12.90
2010,10,19,14,32,12.90
2010,10,19,14,33,12.90
2010,10,19,14,34,12.90
2010,10,19,14,35,12.90
2010,10,19,14,36,12.90
2010,10,19,14,37,12.90
2010,10,19,14,38,12.90
2010,10,19,14,39,13.00
2010,10,19,14,40,13.10
2010,10,19,14,41,13.10
2010,10,19,14,42,13.20
2010,10,19,14,43,13.20
2010,10,19,14,44,13.30
2010,10,19,14,45,13.40
2010,10,19,14,46,13.40
2010,10,19,14,47,13.50
2010,10,19,14,48,13.50
2010,10,19,14,49,13.50
2010,10,19,14,50,13.60
2010,10,19,14,51,13.60
2010,10,19,14,52,13.60
2010,10,19,14,53,13.70
2010,10,19,14,54,13.70
2010,10,19,14,55,13.70
2010,10,19,14,56,13.80
2010,10,19,14,57,13.90
2010,10,19,14,58,13.90
2010,10,19,14,59,13.90
2010,10,19,15,00,13.90
2010,10,19,15,01,13.90
2010,10,19,15,02,13.90
2010,10,19,15,03,13.90
2010,10,19,15,04,13.80
2010,10,19,15,05,13.80
2010,10,19,15,06,13.70
2010,10,19,15,07,13.80
2010,10,19,15,08,13.80
2010,10,19,15,09,13.80
2010,10,19,15,10,13.80
2010,10,19,15,11,13.90
2010,10,19,15,12,13.90
2010,10,19,15,13,13.90
2010,10,19,15,14,14.00
2010,10,19,15,15,14.00
2010,10,19,15,16,14.10
2010,10,19,15,17,14.10
2010,10,19,15,18,14.20
2010,10,19,15,19,14.20
2010,10,19,15,20,14.20
2010,10,19,15,21,14.30
2010,10,19,15,22,14.30
2010,10,19,15,23,14.30
2010,10,19,15,24,14.30
2010,10,19,15,25,14.30
2010,10,19,15,26,14.30
2010,10,19,15,27,14.30
2010,10,19,15,28,14.30
2010,10,19,15,29,14.30
2010,10,19,15,30,14.40
2010,10,19,15,31,14.40
2010,10,19,15,32,14.40
2010,10,19,15,33,14.40
2010,10,19,15,34,14.50
2010,10,19,15,35,14.50
2010,10,19,15,36,14.50
2010,10,19,15,37,14.60
2010,10,19,15,38,14.60
2010,10,19,15,39,14.70
2010,10,19,15,40,14.70
2010,10,19,15,41,14.80
2010,10,19,15,42,14.80
2010,10,19,15,43,14.80
2010,10,19,15,44,14.80
2010,10,19,15,45,14.80
2010,10,19,15,46,14.80
2010,10,19,15,47,14.80
2010,10,19,15,48,14.80
2010,10,19,15,49,14.80
2010,10,19,15,50,14.70
2010,10,19,15,51,14.70
2010,10,19,15,52,14.70
2010,10,19,15,53,14.70
2010,10,19,15,54,14.70
2010,10,19,15,55,14.70
2010,10,19,15,56,14.70
2010,10,19,15,57,14.70
2010,10,19,15,58,14.70
2010,10,19,15,59,14.70
2010,10,19,16,00,14.70
2010,10,19,16,01,14.70
2010,10,19,16,02,14.70
2010,10,19,16,03,14.70
2010,10,19,16,04,14.70
2010,10,19,16,05,14.70
2010,10,19,16,06,14.70
2010,10,19,16,07,14.70
2010,10,19,16,08,14.70
2010,10,19,16,09,14.70
2010,10,19,16,10,14.60
2010,10,19,16,11,14.60
2010,10,19,16,12,14.60
2010,10,19,16,13,14.60
2010,10,19,16,14,14.60
2010,10,19,16,15,14.50
2010,10,19,16,16,14.50
2010,10,19,16,17,14.50
2010,10,19,16,18,14.50
2010,10,19,16,19,14.50
2010,10,19,16,20,14.60
2010,10,19,16,21,14.60
2010,10,19,16,22,14.60
2010,10,19,16,23,14.60
2010,10,19,16,24,14.60
2010,10,19,16,25,14.60
2010,10,19,16,26,14.60
2010,10,19,16,27,14.70
2010,10,19,16,28,14.70
2010,10,19,16,29,14.70
2010,10,19,16,30,14.80
2010,10,19,16,31,14.80
2010,10,19,16,32,14.80
2010,10,19,16,33,14.80
2010,10,19,16,34,14.90
2010,10,19,16,35,14.90
2010,10,19,16,36,14.90
2010,10,19,16,37,14.90
2010,10,19,16,38,14.90
2010,10,19,16,39,14.90
2010,10,19,16,40,15.00
2010,10,19,16,41,15.00
2010,10,19,16,42,15.00
2010,10,19,16,43,15.00
2010,10,19,16,44,15.00
2010,10,19,16,45,15.00
2010,10,19,16,46,15.00
2010,10,19,16,47,15.00
2010,10,19,16,48,15.00
2010,10,19,16,49,15.00
2010,10,19,16,50,15.00
2010,10,19,16,51,15.00
2010,10,19,16,52,15.00
2010,10,19,16,53,15.00
2010,10,19,16,54,15.00
2010,10,19,16,55,15.00
2010,10,19,16,56,14.90
2010,10,19,16,57,14.80
2010,10,19,16,58,14.80
2010,10,19,16,59,14.70
2010,10,19,17,00,14.70
2010,10,19,17,01,14.70
2010,10,19,17,02,14.70
2010,10,19,17,03,14.60
2010,10,19,17,04,14.60
2010,10,19,17,05,14.70
2010,10,19,17,06,14.70
2010,10,19,17,07,14.70
2010,10,19,17,08,14.70
2010,10,19,17,09,14.70
2010,10,19,17,10,14.70
2010,10,19,17,11,14.70
2010,10,19,17,12,14.80
2010,10,19,17,13,14.80
2010,10,19,17,14,14.90
2010,10,19,17,15,15.00
2010,10,19,17,16,15.00
2010,10,19,17,17,15.00
2010,10,19,17,18,15.00
2010,10,19,17,19,15.00
2010,10,19,17,20,15.00
2010,10,19,17,21,15.00
2010,10,19,17,22,15.00
2010,10,19,17,23,15.00
2010,10,19,17,24,15.00
2010,10,19,17,25,15.00
2010,10,19,17,26,15.00
2010,10,19,17,27,15.00
2010,10,19,17,28,15.00
2010,10,19,17,29,15.00
2010,10,19,17,30,15.00
2010,10,19,17,31,15.00
2010,10,19,17,32,15.00
2010,10,19,17,33,15.00
2010,10,19,17,34,15.00
2010,10,19,17,35,15.00
2010,10,19,17,36,15.00
2010,10,19,17,37,15.00
2010,10,19,17,38,15.00
2010,10,19,17,39,15.00
2010,10,19,17,40,15.00
2010,10,19,17,41,15.00
2010,10,19,17,42,15.00
2010,10,19,17,43,15.00
2010,10,19,17,44,15.00